SCP
0 0 0 0 0 0 0 -0 0 -0 -0 0 0 0 0 0 0 0 -0 -0 0 0 0 0 0 0 0 0 0 0 0 0 0 0 0 0 0 0 1 0 0 0 0 0
0 0 -0 -0 -0 -0 -0 0 -0 -0 -0 0 0 -0 -0 0 0 0 -0 0 0 0 0 0 0 0 0 0 0 0 0 0 0 0 0 0 0 0 0 0 0 0 0 0
-0 0 0 0 -0 -0 -0 -0 -0 0 0 0 -0 -0 -0 -0 0 -0 -0 0 0 0 0 0 0 0 0 0 0 0 0 0 0 0 0 0 0 0 0 0 0 0 0 0
0 0 0 0 0 0 0 0 0 0 0 0 -0 0 -0 -0 -0 -0 -0 0 0 0 0 0 0 0 0 -0 0 0 0 0 0 0 0 0 0 0 0 0 0 0 0 0
0 0 0 0 0 0 0 0 0 0 -0 -0 -0 0 -0 0 -0 -0 -0 0 0 0 0 0 0 -0 0 0 0 0 0 0 0 0 0 0 0 0 0 0 0 0 0 0
0 0 0 0 0 0 0 -0 -0 -0 -0 0 0 -0 0 0 0 -0 0 0 0 0 0 0 0 -0 0 0 0 0 0 0 0 0 0 0 0 0 0 0 0 0 0 0
0 0 0 -0 0 0 0 -0 0 0 0 -0 0 -0 0 -0 0 0 0 0 0 0 0 0 0 -0 -0 -0 0 0 0 0 0 0 0 0 0 0 0 0 0 0 0 0
0 0 0 0 0 0 0 0 0 0 0 0 0 0 0 0 -0 -0 -0 0 0 0 0 0 0 0 0 -0 -0 -0 0 0 0 0 0 -0 0 0 0 0 0 0 0 0
0 0 0 0 0 0 0 0 0 0 0 0 0 0 0 0 -0 0 0 0 0 0 -0 0 0 -0 -0 -0 -0 0 -0 -0 -0 -0 -0 0 0 -0 -0 0 0 0 0 0
0 0 0 0 0 0 0 0 0 0 0 0 0 0 0 0 0 0 0 0 0 0 0 0 0 0 0 0 -0 0 0 -0 0 0 -0 -0 -0 -0 -0 -0 0 0 0 0
0 0 0 0 0 0 0 0 0 0 0 0 0 0 0 0 0 0 0 0 0 0 -0 0 0 0 0 0 0 0 0 0 0 0 0 0 0 0 0 0 0 0 0 0
0 0 0 0 0 0 0 0 0 0 0 0 0 0 0 0 0 0 0 -0 0 0 0 0 0 0 0 -0 -0 -0 -0 -0 -0 -0 0 0 0 0 0 0 0 0 0 0
0 0 0 0 0 0 0 0 0 0 0 0 0 0 0 0 0 0 -0 -0 0 0 0 0 0 -0 -0 -0 -0 -0 -0 0 0 0 0 0 0 0 0 0 0 0 0 0
0 0 0 0 0 0 0 0 0 0 0 0 0 0 0 0 0 -0 -0 0 0 -0 -0 -0 -0 -0 -0 -0 -0 -0 0 0 0 0 0 0 0 0 0 0 0 0 0 0
0 0 0 0 0 0 0 0 0 -0 0 0 0 0 0 0 0 0 0 -0 -0 0 -0 -0 -0 -0 -0 -0 0 0 0 0 0 0 0 0 0 0 0 0 0 0 0 0
0 0 0 0 0 0 0 0 0 0 0 0 0 0 0 0 0 0 -0 -0 -0 -0 -0 -0 -0 0 -0 0 0 0 0 0 0 0 0 0 0 0 0 0 0 0 0 0
0 0 0 0 0 0 0 0 0 0 0 0 0 0 0 0 0 0 0 0 -0 -0 -0 -0 -0 -0 -0 -0 -0 -0 -0 -0 -0 0 0 0 0 0 0 0 0 0 0 0
0 0 0 0 0 0 0 0 0 0 0 0 0 0 0 0 0 -0 0 0 -0 -0 -0 -0 -0 -0 -0 -0 -0 -0 -0 -0 -0 -0 -0 -0 -0 -0 0 0 0 0 0 0
-0 0 0 0 0 0 0 0 0 0 0 0 0 0 0 -0 -0 0 0 -0 -0 -0 -0 -0 -0 -0 -0 -0 -0 -0 -0 -0 -0 -0 -0 -0 -0 -0 -0 -0 -0 0 0 0
0 0 0 0 0 0 0 0 0 0 0 0 0 0 0 0 0 0 0 -0 -0 0 0 0 0 0 0 0 -0 -0 -0 -0 -0 -0 -0 0 0 0 -0 -0 -0 0 0 0
0 0 0 0 0 0 0 0 0 0 0 0 0 0 0 0 0 0 0 0 0 0 0 0 0 0 0 0 0 0 0 0 0 0 0 0 0 0 0 0 0 -0 -0 0
0 0 0 0 0 0 0 0 0 0 0 0 0 0 0 0 0 0 0 0 0 0 0 0 0 0 0 0 0 0 0 0 0 0 0 0 0 0 0 0 0 0 -0 -0
0 0 0 0 0 0 0 0 0 0 0 0 0 0 0 0 0 0 0 0 0 0 0 0 0 0 0 0 0 0 0 0 0 0 0 0 0 0 0 0 0 0 0 0
0 0 0 0 0 0 0 0 0 0 0 0 0 0 0 0 0 0 0 0 0 0 0 0 0 0 0 0 0 0 0 0 0 0 0 0 0 0 0 0 0 0 0 0
0 0 0 0 0 0 0 0 0 0 0 0 0 0 0 0 0 0 0 0 0 0 0 0 0 0 0 0 0 0 0 0 0 0 0 0 0 0 0 0 0 0 0 0
0 0 0 0 0 0 0 0 0 0 0 0 0 0 0 0 0 0 0 0 0 0 0 0 0 0 0 0 0 0 0 0 0 0 0 0 0 0 0 0 -0 0 0 0
Wind_Speed_500mb
3 2 13 18 16 15 18 26 34 36 39 33 29 28 37 42 25 38 59 60 53 39 31 36 46 51 42 41 43 47 41 34 57 80 82 88 81 77 73 68 75 73 61 56
5 18 20 19 21 27 23 31 36 32 31 23 23 32 18 20 13 39 44 54 36 21 24 38 48 43 40 43 33 33 34 30 28 72 70 65 69 69 66 57 56 60 57 54
14 6 17 11 22 25 24 26 28 24 24 16 4 14 21 11 36 63 62 47 46 41 28 29 24 29 31 28 18 22 29 34 41 48 45 43 47 54 58 61 60 57 57 53
11 12 18 17 23 25 23 18 13 15 11 5 10 9 5 8 22 29 47 37 28 34 27 25 23 14 5 21 29 54 40 44 53 56 48 42 49 45 43 51 51 52 52 52
3 6 13 12 14 15 17 13 5 28 11 9 13 8 10 15 9 8 12 34 32 32 28 38 19 7 18 13 27 38 36 39 55 58 51 55 59 52 43 41 42 41 41 46
13 9 6 10 16 21 19 9 16 3 3 8 9 17 3 7 10 12 15 2 34 30 41 30 24 29 8 8 4 43 43 64 71 64 59 50 50 48 33 29 38 33 34 44
9 10 7 12 12 4 6 4 5 7 7 5 16 10 1 17 14 14 13 21 16 33 42 33 30 35 20 28 41 38 34 53 67 48 43 37 21 22 27 31 28 26 30 34
9 12 5 8 10 8 4 7 4 8 6 5 6 9 11 26 22 12 12 15 32 39 29 20 13 9 7 2 12 23 31 39 56 52 59 59 46 49 36 44 51 52 55 51
8 9 5 14 10 6 5 3 4 5 2 6 8 4 4 32 28 27 28 27 45 54 45 31 18 12 9 6 3 10 15 20 26 15 16 46 36 46 72 74 77 67 75 64
5 8 10 7 9 13 10 5 5 3 6 7 5 7 10 21 17 20 22 50 67 55 47 40 36 38 31 28 20 11 2 3 15 19 25 44 54 46 46 57 70 53 83 69
7 3 12 4 6 7 10 8 5 1 7 2 3 8 2 9 24 34 38 37 45 44 44 40 45 44 42 43 40 32 23 10 1 9 17 21 29 38 44 38 37 46 61 69
3 3 6 5 9 7 5 9 5 7 9 7 6 9 7 21 11 25 34 43 49 44 43 46 44 45 45 43 38 35 31 27 21 11 3 15 26 34 38 42 44 50 53 54
8 6 7 16 12 12 9 21 5 5 6 8 8 5 8 23 23 28 34 40 41 40 41 41 41 43 38 32 31 33 31 29 22 18 14 11 14 21 26 29 34 41 44 44
1 7 6 10 10 9 13 24 15 9 8 5 9 13 8 10 12 20 34 33 35 35 36 34 31 29 23 20 23 21 18 18 17 16 15 17 19 21 23 26 33 40 42 45
7 3 5 4 6 4 7 10 19 12 10 9 15 11 6 7 9 15 23 21 26 32 36 37 38 30 29 31 28 27 25 24 26 28 29 31 30 29 30 32 35 38 40 44
7 3 3 4 6 4 7 15 14 17 22 15 16 8 10 17 20 17 15 14 20 23 27 34 44 43 38 40 44 40 40 40 40 40 41 42 43 44 44 44 43 42 46 47
4 6 4 5 4 5 7 4 4 5 6 11 8 10 12 8 12 9 9 4 6 11 25 34 31 32 40 44 47 44 43 47 51 50 49 47 47 49 49 47 49 51 50 50
2 4 5 5 5 4 10 2 3 8 3 5 11 8 10 7 3 8 7 3 15 28 40 42 42 46 48 47 49 51 53 55 59 60 60 56 52 52 52 54 56 55 52 51
4 5 2 4 3 5 1 7 9 9 10 11 13 8 4 8 12 6 6 15 28 44 50 46 45 46 46 45 47 48 50 53 57 62 67 68 71 73 68 66 63 60 60 61
3 6 7 2 2 7 7 7 10 7 7 18 21 14 12 6 2 8 10 18 32 29 31 36 35 35 37 39 42 44 46 49 52 56 59 65 73 74 76 75 73 69 69 67
3 3 6 2 4 12 8 15 12 7 10 29 35 32 26 11 16 11 13 20 19 19 26 33 38 43 43 42 41 37 40 44 47 52 57 59 64 69 75 81 76 76 65 68
10 8 7 4 4 12 25 11 14 8 22 39 31 30 25 16 14 11 10 10 9 16 24 32 34 32 31 24 24 33 40 41 44 51 54 60 64 65 70 74 78 77 74 60
5 11 6 14 10 7 48 11 23 24 35 38 36 31 24 20 15 12 11 11 15 21 23 26 29 33 34 29 24 31 37 41 43 50 51 62 61 60 61 66 71 73 73 63
8 12 7 3 5 15 47 27 30 31 31 33 31 28 24 18 13 11 12 15 18 21 26 30 34 37 40 41 35 33 42 43 46 45 54 62 62 67 61 60 60 71 72 67
12 13 9 10 14 7 30 53 44 36 30 33 28 23 16 13 11 13 14 17 21 25 29 34 39 46 50 53 45 45 56 59 58 60 65 64 64 64 70 69 67 64 67 70
23 16 12 11 22 13 9 37 49 46 41 35 29 22 16 14 13 16 19 22 25 28 33 38 44 50 54 56 48 51 58 62 64 69 70 70 69 67 74 76 79 70 61 63
Wind_Direction_500mb
182 48 219 214 208 243 271 274 275 276 281 285 284 256 250 241 241 279 284 248 231 229 252 265 272 272 257 248 244 265 272 284 184 181 187 176 183 188 194 200 204 207 202 198
354 257 253 227 236 267 264 284 275 280 271 275 289 264 255 226 252 274 267 214 226 233 260 266 268 264 250 240 243 260 262 244 171 161 172 181 190 186 188 192 194 197 198 201
215 213 330 243 238 255 253 258 273 257 300 260 272 284 248 229 201 243 259 229 231 230 245 261 247 228 216 226 234 229 260 216 191 165 165 180 191 189 190 194 189 191 199 207
249 241 255 271 259 239 275 249 252 288 287 260 84 294 311 292 260 219 227 214 207 211 233 228 209 125 4 274 258 255 271 189 176 176 169 191 205 203 200 204 208 207 205 206
265 236 227 249 243 182 238 238 244 269 219 284 225 237 332 346 227 334 287 229 220 204 211 163 161 93 16 297 233 230 237 202 174 177 181 191 189 190 185 203 200 206 206 209
252 290 237 229 257 254 273 345 290 135 173 249 246 187 356 344 285 298 317 359 185 197 184 171 128 91 145 71 329 210 194 189 187 185 190 186 179 179 174 188 201 198 220 218
197 227 230 215 264 224 71 284 276 176 217 19 100 154 113 312 301 270 307 339 188 171 161 150 136 162 139 63 62 119 171 188 180 185 179 178 200 236 236 214 223 224 253 238
354 333 229 161 201 248 234 216 319 352 34 51 81 1 348 338 5 348 22 337 105 85 112 131 188 222 294 283 85 93 100 121 186 204 218 235 244 262 241 236 257 262 268 271
3 287 279 231 218 218 357 306 245 272 287 82 350 41 346 11 29 33 53 60 68 70 61 69 62 67 60 76 103 232 208 182 193 211 201 203 228 244 239 244 247 261 241 257
295 302 226 276 225 243 206 224 294 37 36 67 352 42 22 1 28 63 78 61 62 73 75 75 74 72 71 74 71 68 89 254 257 257 225 218 234 240 246 247 253 249 239 256
281 201 299 7 341 307 341 334 304 165 146 133 52 55 331 30 53 61 63 77 85 83 84 78 73 71 70 69 68 70 74 77 277 265 259 248 243 247 256 258 253 252 254 256
279 245 293 249 269 292 272 295 359 83 11 61 88 45 230 185 207 99 82 79 89 86 81 73 66 62 57 56 56 54 54 57 50 39 284 247 252 256 260 267 265 257 253 254
347 350 2 346 348 352 358 336 300 113 60 23 91 94 17 58 70 79 82 83 84 81 76 71 66 59 55 49 44 44 38 36 31 20 9 329 289 282 283 274 268 272 275 274
36 38 130 167 224 253 327 346 7 83 76 66 55 131 50 64 80 79 88 80 72 60 56 50 46 45 40 31 28 21 10 358 341 330 319 306 303 298 289 282 283 280 276 274
111 88 60 300 228 332 333 357 12 68 155 109 173 119 160 136 107 95 91 75 57 43 31 20 9 360 353 350 346 340 331 321 310 306 306 303 297 293 286 283 277 271 276 277
12 185 61 303 353 101 32 0 20 51 78 84 117 117 162 139 118 92 80 62 47 25 10 358 353 349 343 348 343 341 335 329 323 317 308 300 295 290 288 288 286 284 281 274
33 131 94 270 328 15 337 297 21 77 41 149 183 186 154 130 130 147 152 124 54 350 346 348 346 339 345 343 338 336 324 327 325 323 317 312 308 299 291 286 286 284 281 281
358 118 130 235 24 37 247 231 293 132 135 99 96 106 140 132 38 15 99 37 324 334 338 343 339 343 344 338 332 329 329 328 327 325 322 321 314 305 296 288 282 281 280 280
103 116 57 112 196 232 146 229 179 173 249 195 151 147 108 29 349 345 2 323 326 324 321 324 325 324 322 318 318 316 316 318 319 321 320 319 316 313 308 301 292 283 276 273
351 99 118 138 97 216 210 186 149 77 279 192 171 170 164 118 162 260 296 297 305 305 313 312 307 305 302 305 307 307 310 310 308 308 310 311 311 312 313 311 302 289 278 276
343 356 169 208 244 289 173 168 144 148 245 167 179 177 175 183 197 194 277 296 304 310 302 296 302 298 299 304 307 310 310 319 314 314 307 305 304 307 308 308 307 304 300 277
185 161 215 142 178 279 158 122 168 193 153 166 173 184 198 219 238 256 256 283 292 286 282 284 292 301 310 308 295 290 300 307 301 298 305 312 314 309 305 301 303 302 299 289
247 191 194 183 217 214 184 207 203 178 169 178 184 193 204 220 234 249 265 275 279 284 295 305 314 327 335 328 310 300 303 302 298 300 302 314 320 316 309 304 298 298 296 288
250 182 212 8 250 208 198 196 194 197 200 195 201 202 211 231 246 253 269 286 300 315 322 326 328 329 334 332 326 321 328 316 313 305 308 321 320 318 319 311 292 294 294 282
217 152 201 255 268 226 220 213 212 207 210 201 205 215 233 256 265 273 287 304 318 324 328 330 329 330 333 335 338 340 337 331 326 323 322 324 324 318 320 314 310 297 278 278
198 202 200 230 221 201 203 217 215 217 220 217 213 219 238 266 276 288 303 315 323 326 328 328 329 331 333 334 336 337 334 330 330 329 328 327 327 324 323 321 316 309 295 265
Wind_Speed_850mb
3 2 13 18 16 15 18 26 34 36 39 33 29 28 37 42 25 38 59 60 53 39 31 36 46 51 42 41 43 47 41 34 57 80 82 88 81 77 73 68 75 73 61 56
5 18 20 19 21 27 23 31 36 32 31 23 23 32 18 20 13 39 44 54 36 21 24 38 48 43 40 43 33 33 34 30 28 72 70 65 69 69 66 57 56 60 57 54
14 6 17 11 22 25 24 26 28 24 24 16 4 14 21 11 36 63 62 47 46 41 28 29 24 29 31 28 18 22 29 34 41 48 45 43 47 54 58 61 60 57 57 53
11 12 18 17 23 25 23 18 13 15 11 5 10 9 5 8 22 29 47 37 28 34 27 25 23 14 5 21 29 54 40 44 53 56 48 42 49 45 43 51 51 52 52 52
3 6 13 12 14 15 17 13 5 28 11 9 13 8 10 15 9 8 12 34 32 32 28 38 19 7 18 13 27 38 36 39 55 58 51 55 59 52 43 41 42 41 41 46
13 9 6 10 16 21 19 9 16 3 3 8 9 17 3 7 10 12 15 2 34 30 41 30 24 29 8 8 4 43 43 64 71 64 59 50 50 48 33 29 38 33 34 44
9 10 7 12 12 4 6 4 5 7 7 5 16 10 1 17 14 14 13 21 16 33 42 33 30 35 20 28 41 38 34 53 67 48 43 37 21 22 27 31 28 26 30 34
9 12 5 8 10 8 4 7 4 8 6 5 6 9 11 26 22 12 12 15 32 39 29 20 13 9 7 2 12 23 31 39 56 52 59 59 46 49 36 44 51 52 55 51
8 9 5 14 10 6 5 3 4 5 2 6 8 4 4 32 28 27 28 27 45 54 45 31 18 12 9 6 3 10 15 20 26 15 16 46 36 46 72 74 77 67 75 64
5 8 10 7 9 13 10 5 5 3 6 7 5 7 10 21 17 20 22 50 67 55 47 40 36 38 31 28 20 11 2 3 15 19 25 44 54 46 46 57 70 53 83 69
7 3 12 4 6 7 10 8 5 1 7 2 3 8 2 9 24 34 38 37 45 44 44 40 45 44 42 43 40 32 23 10 1 9 17 21 29 38 44 38 37 46 61 69
3 3 6 5 9 7 5 9 5 7 9 7 6 9 7 21 11 25 34 43 49 44 43 46 44 45 45 43 38 35 31 27 21 11 3 15 26 34 38 42 44 50 53 54
8 6 7 16 12 12 9 21 5 5 6 8 8 5 8 23 23 28 34 40 41 40 41 41 41 43 38 32 31 33 31 29 22 18 14 11 14 21 26 29 34 41 44 44
1 7 6 10 10 9 13 24 15 9 8 5 9 13 8 10 12 20 34 33 35 35 36 34 31 29 23 20 23 21 18 18 17 16 15 17 19 21 23 26 33 40 42 45
7 3 5 4 6 4 7 10 19 12 10 9 15 11 6 7 9 15 23 21 26 32 36 37 38 30 29 31 28 27 25 24 26 28 29 31 30 29 30 32 35 38 40 44
7 3 3 4 6 4 7 15 14 17 22 15 16 8 10 17 20 17 15 14 20 23 27 34 44 43 38 40 44 40 40 40 40 40 41 42 43 44 44 44 43 42 46 47
4 6 4 5 4 5 7 4 4 5 6 11 8 10 12 8 12 9 9 4 6 11 25 34 31 32 40 44 47 44 43 47 51 50 49 47 47 49 49 47 49 51 50 50
2 4 5 5 5 4 10 2 3 8 3 5 11 8 10 7 3 8 7 3 15 28 40 42 42 46 48 47 49 51 53 55 59 60 60 56 52 52 52 54 56 55 52 51
4 5 2 4 3 5 1 7 9 9 10 11 13 8 4 8 12 6 6 15 28 44 50 46 45 46 46 45 47 48 50 53 57 62 67 68 71 73 68 66 63 60 60 61
3 6 7 2 2 7 7 7 10 7 7 18 21 14 12 6 2 8 10 18 32 29 31 36 35 35 37 39 42 44 46 49 52 56 59 65 73 74 76 75 73 69 69 67
3 3 6 2 4 12 8 15 12 7 10 29 35 32 26 11 16 11 13 20 19 19 26 33 38 43 43 42 41 37 40 44 47 52 57 59 64 69 75 81 76 76 65 68
10 8 7 4 4 12 25 11 14 8 22 39 31 30 25 16 14 11 10 10 9 16 24 32 34 32 31 24 24 33 40 41 44 51 54 60 64 65 70 74 78 77 74 60
5 11 6 14 10 7 48 11 23 24 35 38 36 31 24 20 15 12 11 11 15 21 23 26 29 33 34 29 24 31 37 41 43 50 51 62 61 60 61 66 71 73 73 63
8 12 7 3 5 15 47 27 30 31 31 33 31 28 24 18 13 11 12 15 18 21 26 30 34 37 40 41 35 33 42 43 46 45 54 62 62 67 61 60 60 71 72 67
12 13 9 10 14 7 30 53 44 36 30 33 28 23 16 13 11 13 14 17 21 25 29 34 39 46 50 53 45 45 56 59 58 60 65 64 64 64 70 69 67 64 67 70
23 16 12 11 22 13 9 37 49 46 41 35 29 22 16 14 13 16 19 22 25 28 33 38 44 50 54 56 48 51 58 62 64 69 70 70 69 67 74 76 79 70 61 63
Wind_Direction_850mb
182 48 219 214 208 243 271 274 275 276 281 285 284 256 250 241 241 279 284 248 231 229 252 265 272 272 257 248 244 265 272 284 184 181 187 176 183 188 194 200 204 207 202 198
354 257 253 227 236 267 264 284 275 280 271 275 289 264 255 226 252 274 267 214 226 233 260 266 268 264 250 240 243 260 262 244 171 161 172 181 190 186 188 192 194 197 198 201
215 213 330 243 238 255 253 258 273 257 300 260 272 284 248 229 201 243 259 229 231 230 245 261 247 228 216 226 234 229 260 216 191 165 165 180 191 189 190 194 189 191 199 207
249 241 255 271 259 239 275 249 252 288 287 260 84 294 311 292 260 219 227 214 207 211 233 228 209 125 4 274 258 255 271 189 176 176 169 191 205 203 200 204 208 207 205 206
265 236 227 249 243 182 238 238 244 269 219 284 225 237 332 346 227 334 287 229 220 204 211 163 161 93 16 297 233 230 237 202 174 177 181 191 189 190 185 203 200 206 206 209
252 290 237 229 257 254 273 345 290 135 173 249 246 187 356 344 285 298 317 359 185 197 184 171 128 91 145 71 329 210 194 189 187 185 190 186 179 179 174 188 201 198 220 218
197 227 230 215 264 224 71 284 276 176 217 19 100 154 113 312 301 270 307 339 188 171 161 150 136 162 139 63 62 119 171 188 180 185 179 178 200 236 236 214 223 224 253 238
354 333 229 161 201 248 234 216 319 352 34 51 81 1 348 338 5 348 22 337 105 85 112 131 188 222 294 283 85 93 100 121 186 204 218 235 244 262 241 236 257 262 268 271
3 287 279 231 218 218 357 306 245 272 287 82 350 41 346 11 29 33 53 60 68 70 61 69 62 67 60 76 103 232 208 182 193 211 201 203 228 244 239 244 247 261 241 257
295 302 226 276 225 243 206 224 294 37 36 67 352 42 22 1 28 63 78 61 62 73 75 75 74 72 71 74 71 68 89 254 257 257 225 218 234 240 246 247 253 249 239 256
281 201 299 7 341 307 341 334 304 165 146 133 52 55 331 30 53 61 63 77 85 83 84 78 73 71 70 69 68 70 74 77 277 265 259 248 243 247 256 258 253 252 254 256
279 245 293 249 269 292 272 295 359 83 11 61 88 45 230 185 207 99 82 79 89 86 81 73 66 62 57 56 56 54 54 57 50 39 284 247 252 256 260 267 265 257 253 254
347 350 2 346 348 352 358 336 300 113 60 23 91 94 17 58 70 79 82 83 84 81 76 71 66 59 55 49 44 44 38 36 31 20 9 329 289 282 283 274 268 272 275 274
36 38 130 167 224 253 327 346 7 83 76 66 55 131 50 64 80 79 88 80 72 60 56 50 46 45 40 31 28 21 10 358 341 330 319 306 303 298 289 282 283 280 276 274
111 88 60 300 228 332 333 357 12 68 155 109 173 119 160 136 107 95 91 75 57 43 31 20 9 360 353 350 346 340 331 321 310 306 306 303 297 293 286 283 277 271 276 277
12 185 61 303 353 101 32 0 20 51 78 84 117 117 162 139 118 92 80 62 47 25 10 358 353 349 343 348 343 341 335 329 323 317 308 300 295 290 288 288 286 284 281 274
33 131 94 270 328 15 337 297 21 77 41 149 183 186 154 130 130 147 152 124 54 350 346 348 346 339 345 343 338 336 324 327 325 323 317 312 308 299 291 286 286 284 281 281
358 118 130 235 24 37 247 231 293 132 135 99 96 106 140 132 38 15 99 37 324 334 338 343 339 343 344 338 332 329 329 328 327 325 322 321 314 305 296 288 282 281 280 280
103 116 57 112 196 232 146 229 179 173 249 195 151 147 108 29 349 345 2 323 326 324 321 324 325 324 322 318 318 316 316 318 319 321 320 319 316 313 308 301 292 283 276 273
351 99 118 138 97 216 210 186 149 77 279 192 171 170 164 118 162 260 296 297 305 305 313 312 307 305 302 305 307 307 310 310 308 308 310 311 311 312 313 311 302 289 278 276
343 356 169 208 244 289 173 168 144 148 245 167 179 177 175 183 197 194 277 296 304 310 302 296 302 298 299 304 307 310 310 319 314 314 307 305 304 307 308 308 307 304 300 277
185 161 215 142 178 279 158 122 168 193 153 166 173 184 198 219 238 256 256 283 292 286 282 284 292 301 310 308 295 290 300 307 301 298 305 312 314 309 305 301 303 302 299 289
247 191 194 183 217 214 184 207 203 178 169 178 184 193 204 220 234 249 265 275 279 284 295 305 314 327 335 328 310 300 303 302 298 300 302 314 320 316 309 304 298 298 296 288
250 182 212 8 250 208 198 196 194 197 200 195 201 202 211 231 246 253 269 286 300 315 322 326 328 329 334 332 326 321 328 316 313 305 308 321 320 318 319 311 292 294 294 282
217 152 201 255 268 226 220 213 212 207 210 201 205 215 233 256 265 273 287 304 318 324 328 330 329 330 333 335 338 340 337 331 326 323 322 324 324 318 320 314 310 297 278 278
198 202 200 230 221 201 203 217 215 217 220 217 213 219 238 266 276 288 303 315 323 326 328 328 329 331 333 334 336 337 334 330 330 329 328 327 327 324 323 321 316 309 295 265